RYR39QA LPFR-EDLV

Flight info

Callsign RYR39QA
Flight time 2h 36m
Altitude 38000
Route NIRAK Y136 NAPES N747 PIMUR M30 OXACA N858 ABRIX DCT CNA DCT ADABI DCT BOKNO DCT DIBES DCT VIQAQ DCT TSU UN858 OQQAL DCT RANUX/N0452F370 DCT VALEK DCT LUTAX UM163 DIK N853 ARCKY T853 IBESA T474 LAA
Aircraft B38M/M-SDE1FGHILORVWXY/HB1

Departure

Time 2026-05-09 10:14
Airport Faro - Gago Coutinho International Airport (LPFR)

Arrival

Time 2026-05-09 12:51
Airport Weeze (Niederrhein) Airport (EDLV)
Time Latitude Longitude Altitude Speed Heading
2026-05-09 09:32 37.01848 -7.96426 22 ft 0 kts 11°
2026-05-09 10:06 37.01834 -7.96429 24 ft 4 kts 11°
2026-05-09 10:07 37.01810 -7.96435 24 ft 2 kts 11°
2026-05-09 10:07 37.01788 -7.96445 27 ft 4 kts 40°
2026-05-09 10:07 37.01777 -7.96470 23 ft 4 kts 93°
2026-05-09 10:07 37.01782 -7.96500 24 ft 4 kts 103°
2026-05-09 10:08 37.01784 -7.96508 25 ft 0 kts 103°
2026-05-09 10:11 37.01781 -7.96494 22 ft 4 kts 103°
2026-05-09 10:11 37.01771 -7.96431 25 ft 11 kts 101°
2026-05-09 10:11 37.01753 -7.96314 24 ft 15 kts 100°
2026-05-09 10:11 37.01733 -7.96177 22 ft 15 kts 101°
2026-05-09 10:12 37.01677 -7.96084 24 ft 15 kts 176°
2026-05-09 10:12 37.01578 -7.96086 22 ft 13 kts 148°
2026-05-09 10:12 37.01542 -7.95980 26 ft 13 kts 98°
2026-05-09 10:12 37.01524 -7.95881 24 ft 12 kts 115°
2026-05-09 10:13 37.01461 -7.95837 22 ft 11 kts 181°
2026-05-09 10:13 37.01382 -7.95853 23 ft 9 kts 191°
2026-05-09 10:13 37.01348 -7.95894 24 ft 7 kts 272°
2026-05-09 10:13 37.01367 -7.96041 23 ft 44 kts 279°
2026-05-09 10:14 37.01464 -7.96743 25 ft 117 kts 280°
2026-05-09 10:14 37.01640 -7.97982 155 ft 161 kts 277°
2026-05-09 10:14 37.01857 -7.99396 866 ft 170 kts 276°
2026-05-09 10:14 37.02109 -8.00898 1583 ft 188 kts 275°
2026-05-09 10:15 37.02357 -8.02623 2155 ft 212 kts 275°
2026-05-09 10:15 37.02602 -8.04389 3403 ft 199 kts 274°
2026-05-09 10:15 37.02843 -8.06107 4443 ft 203 kts 274°
2026-05-09 10:15 37.02954 -8.07906 5191 ft 214 kts 258°
2026-05-09 10:16 37.02327 -8.09602 5820 ft 225 kts 224°
2026-05-09 10:16 37.00906 -8.10525 6527 ft 243 kts 191°
2026-05-09 10:16 36.99194 -8.10241 7492 ft 257 kts 167°
2026-05-09 10:16 36.97582 -8.09139 8422 ft 274 kts 146°
2026-05-09 10:17 36.96448 -8.07149 9387 ft 295 kts 117°
2026-05-09 10:17 36.96147 -8.04536 10188 ft 318 kts 89°
2026-05-09 10:17 36.96690 -8.01749 10700 ft 340 kts 78°
2026-05-09 10:17 36.97204 -7.98787 11152 ft 357 kts 83°
2026-05-09 10:18 36.97706 -7.95692 11729 ft 370 kts 82°
2026-05-09 10:18 36.98234 -7.92500 12401 ft 378 kts 82°
2026-05-09 10:18 36.98785 -7.89270 13222 ft 382 kts 82°
2026-05-09 10:18 36.99351 -7.85999 13948 ft 388 kts 81°
2026-05-09 10:19 36.99928 -7.82687 14637 ft 392 kts 81°
2026-05-09 10:19 37.00514 -7.79335 15308 ft 396 kts 81°
2026-05-09 10:19 37.01104 -7.75949 15962 ft 401 kts 81°
2026-05-09 10:19 37.01701 -7.72522 16606 ft 406 kts 81°
2026-05-09 10:20 37.02305 -7.69052 17247 ft 410 kts 81°
2026-05-09 10:20 37.02914 -7.65542 17877 ft 415 kts 81°
2026-05-09 10:20 37.03529 -7.62003 18443 ft 419 kts 81°
2026-05-09 10:20 37.04149 -7.58423 18965 ft 423 kts 81°
2026-05-09 10:21 37.04773 -7.54816 19549 ft 425 kts 81°
2026-05-09 10:21 37.05419 -7.51188 20044 ft 431 kts 77°
2026-05-09 10:21 37.06601 -7.47724 20567 ft 436 kts 58°
2026-05-09 10:21 37.08515 -7.44787 21043 ft 439 kts 40°
2026-05-09 10:22 37.11028 -7.42622 21526 ft 436 kts 21°
2026-05-09 10:22 37.13878 -7.41417 21968 ft 432 kts
2026-05-09 10:22 37.16834 -7.40627 22435 ft 440 kts 14°
2026-05-09 10:22 37.18702 -7.39598 22824 ft 447 kts 26°
2026-05-09 10:23 37.21827 -7.36168 23441 ft 460 kts 53°
2026-05-09 10:23 37.23360 -7.32643 23664 ft 462 kts 72°
2026-05-09 10:23 37.23987 -7.28729 23802 ft 456 kts 91°
2026-05-09 10:23 37.23700 -7.24812 23858 ft 447 kts 109°
2026-05-09 10:24 37.22601 -7.21225 23835 ft 438 kts 123°
2026-05-09 10:24 37.21398 -7.17695 23836 ft 448 kts 108°
2026-05-09 10:24 37.21066 -7.15078 24088 ft 451 kts 100°
2026-05-09 10:24 37.20644 -7.11171 24459 ft 453 kts 103°
2026-05-09 10:25 37.20147 -7.07256 24885 ft 456 kts 103°
2026-05-09 10:25 37.19892 -7.03272 25286 ft 464 kts 89°
2026-05-09 10:25 37.20415 -6.99253 25738 ft 469 kts 80°
2026-05-09 10:25 37.21118 -6.95245 26069 ft 473 kts 79°
2026-05-09 10:26 37.21847 -6.91211 26480 ft 475 kts 79°
2026-05-09 10:26 37.22595 -6.87156 26856 ft 478 kts 79°
2026-05-09 10:26 37.23354 -6.83080 27209 ft 481 kts 79°
2026-05-09 10:26 37.24116 -6.78990 27606 ft 483 kts 79°
2026-05-09 10:27 37.24881 -6.74876 27961 ft 485 kts 79°
2026-05-09 10:27 37.25634 -6.70820 28306 ft 488 kts 79°
2026-05-09 10:27 37.26414 -6.66611 28677 ft 491 kts 79°
2026-05-09 10:27 37.27190 -6.62416 29010 ft 494 kts 79°
2026-05-09 10:28 37.27992 -6.58275 29328 ft 497 kts 73°
2026-05-09 10:28 37.29392 -6.54304 29675 ft 500 kts 58°
2026-05-09 10:28 37.31474 -6.50808 29946 ft 501 kts 43°
2026-05-09 10:28 37.34168 -6.48076 30226 ft 497 kts 29°
2026-05-09 10:29 37.37084 -6.45722 30423 ft 500 kts 29°
2026-05-09 10:29 37.40011 -6.43382 30851 ft 498 kts 28°
2026-05-09 10:29 37.42947 -6.41063 31128 ft 500 kts 28°
2026-05-09 10:29 37.45906 -6.38744 31359 ft 502 kts 27°
2026-05-09 10:30 37.48874 -6.36418 31647 ft 504 kts 27°
2026-05-09 10:30 37.51852 -6.34082 31973 ft 504 kts 27°
2026-05-09 10:30 37.54824 -6.31751 32343 ft 503 kts 27°
2026-05-09 10:30 37.57795 -6.29415 32680 ft 504 kts 27°
2026-05-09 10:31 37.60771 -6.27076 33025 ft 504 kts 27°
2026-05-09 10:31 37.63741 -6.24739 33427 ft 502 kts 27°
2026-05-09 10:31 37.66699 -6.22409 33803 ft 501 kts 27°
2026-05-09 10:31 37.69656 -6.20076 34112 ft 501 kts 27°
2026-05-09 10:32 37.72608 -6.17745 34398 ft 500 kts 27°
2026-05-09 10:32 37.75557 -6.15416 34674 ft 500 kts 27°
2026-05-09 10:32 37.78507 -6.13084 34942 ft 500 kts 27°
2026-05-09 10:32 37.81453 -6.10751 35228 ft 500 kts 27°
2026-05-09 10:33 37.84401 -6.08415 35447 ft 500 kts 28°
2026-05-09 10:33 37.87344 -6.06081 35765 ft 498 kts 28°
2026-05-09 10:33 37.90273 -6.03756 36104 ft 496 kts 28°
2026-05-09 10:33 37.93193 -6.01437 36362 ft 495 kts 28°
2026-05-09 10:34 37.96107 -5.99109 36597 ft 495 kts 29°
2026-05-09 10:34 38.01925 -5.94450 37052 ft 494 kts 29°
2026-05-09 10:34 38.04831 -5.92120 37294 ft 494 kts 30°
2026-05-09 10:35 38.07733 -5.89791 37475 ft 495 kts 30°
2026-05-09 10:35 38.10649 -5.87450 37634 ft 496 kts 30°
2026-05-09 10:35 38.13559 -5.85111 37830 ft 495 kts 30°
2026-05-09 10:35 38.16469 -5.82769 37898 ft 496 kts 30°
2026-05-09 10:36 38.22275 -5.78091 37872 ft 493 kts 30°
2026-05-09 10:36 38.28081 -5.73402 37862 ft 494 kts 30°
2026-05-09 10:37 38.33877 -5.68713 37847 ft 494 kts 31°
2026-05-09 10:37 38.39683 -5.64007 37853 ft 495 kts 31°
2026-05-09 10:38 38.45495 -5.59287 37862 ft 495 kts 31°
2026-05-09 10:38 38.51299 -5.54565 37873 ft 495 kts 31°
2026-05-09 10:39 38.57111 -5.49828 37856 ft 497 kts 31°
2026-05-09 10:39 38.62965 -5.45092 37861 ft 498 kts 31°
2026-05-09 10:40 38.68783 -5.40388 37870 ft 498 kts 31°
2026-05-09 10:40 38.74634 -5.35648 37878 ft 498 kts 31°
2026-05-09 10:41 38.80497 -5.30888 37849 ft 499 kts 31°
2026-05-09 10:41 38.86371 -5.26111 37874 ft 501 kts 31°
2026-05-09 10:42 38.92245 -5.21323 37871 ft 500 kts 31°
2026-05-09 10:42 38.98120 -5.16526 37885 ft 500 kts 31°
2026-05-09 10:43 39.03979 -5.11697 37879 ft 501 kts 31°
2026-05-09 10:43 39.09852 -5.06846 37866 ft 502 kts 31°
2026-05-09 10:44 39.15724 -5.01987 37877 ft 502 kts 31°
2026-05-09 10:44 39.21592 -4.97120 37874 ft 502 kts 31°
2026-05-09 10:46 39.36278 -4.84898 37879 ft 503 kts 32°
2026-05-09 10:46 39.42148 -4.79995 37877 ft 502 kts 32°
2026-05-09 10:47 39.48021 -4.75081 37872 ft 502 kts 32°
2026-05-09 10:47 39.53936 -4.70119 37884 ft 504 kts 32°
2026-05-09 10:48 39.59820 -4.65175 37875 ft 504 kts 32°
2026-05-09 10:48 39.65709 -4.60216 37884 ft 504 kts 33°
2026-05-09 10:49 39.71593 -4.55250 37862 ft 504 kts 33°
2026-05-09 10:49 39.77478 -4.50275 37881 ft 505 kts 33°
2026-05-09 10:50 39.83349 -4.45301 37881 ft 504 kts 33°
2026-05-09 10:50 39.89191 -4.40341 37892 ft 504 kts 33°
2026-05-09 10:51 39.95100 -4.35315 37902 ft 504 kts 33°
2026-05-09 10:51 40.01254 -4.31140 37937 ft 502 kts 24°
2026-05-09 10:52 40.07632 -4.27235 37872 ft 502 kts 24°
2026-05-09 10:52 40.13968 -4.23365 37898 ft 503 kts 24°
2026-05-09 10:53 40.20262 -4.19514 37905 ft 503 kts 24°
2026-05-09 10:53 40.26639 -4.15605 37898 ft 502 kts 24°
2026-05-09 10:54 40.32919 -4.11747 37889 ft 502 kts 24°
2026-05-09 10:54 40.39243 -4.07854 37900 ft 502 kts 24°
2026-05-09 10:55 40.45623 -4.03917 37908 ft 504 kts 25°
2026-05-09 10:55 40.51979 -3.99988 37914 ft 505 kts 25°
2026-05-09 10:56 40.58320 -3.96060 37924 ft 505 kts 25°
2026-05-09 10:56 40.64676 -3.92114 37935 ft 505 kts 25°
2026-05-09 10:57 40.71025 -3.88164 37935 ft 505 kts 25°
2026-05-09 10:57 40.77382 -3.84201 37945 ft 505 kts 25°
2026-05-09 10:58 40.83730 -3.80235 37884 ft 504 kts 25°
2026-05-09 10:58 40.90046 -3.76280 37890 ft 502 kts 25°
2026-05-09 10:59 40.96367 -3.72314 37885 ft 502 kts 25°
2026-05-09 10:59 41.02674 -3.68349 37892 ft 502 kts 25°
2026-05-09 11:00 41.08992 -3.64369 37909 ft 502 kts 25°
2026-05-09 11:00 41.15324 -3.60447 37882 ft 502 kts 21°
2026-05-09 11:01 41.21806 -3.56965 37891 ft 503 kts 22°
2026-05-09 11:01 41.28263 -3.53419 37877 ft 502 kts 22°
2026-05-09 11:02 41.34716 -3.49863 37883 ft 502 kts 22°
2026-05-09 11:02 41.41154 -3.46305 37876 ft 501 kts 22°
2026-05-09 11:03 41.47601 -3.42736 37851 ft 501 kts 22°
2026-05-09 11:03 41.54074 -3.39167 37890 ft 505 kts 22°
2026-05-09 11:04 41.60558 -3.35588 37871 ft 503 kts 22°
2026-05-09 11:04 41.67037 -3.32004 37879 ft 504 kts 22°
2026-05-09 11:05 41.73504 -3.28420 37879 ft 503 kts 22°
2026-05-09 11:05 41.78884 -3.25432 37872 ft 503 kts 22°
2026-05-09 11:06 41.85352 -3.21832 37878 ft 503 kts 22°
2026-05-09 11:06 41.91814 -3.18228 37893 ft 503 kts 22°
2026-05-09 11:07 41.98272 -3.14617 37887 ft 502 kts 22°
2026-05-09 11:07 42.04716 -3.11007 37893 ft 502 kts 22°
2026-05-09 11:08 42.11163 -3.07388 37878 ft 502 kts 22°
2026-05-09 11:08 42.17610 -3.03760 37881 ft 502 kts 22°
2026-05-09 11:09 42.24072 -3.00116 37907 ft 504 kts 22°
2026-05-09 11:09 42.30533 -2.96464 37871 ft 502 kts 22°
2026-05-09 11:10 42.36990 -2.92807 37887 ft 504 kts 22°
2026-05-09 11:10 42.43427 -2.89154 37898 ft 501 kts 22°
2026-05-09 11:11 42.49617 -2.84826 37935 ft 501 kts 29°
2026-05-09 11:11 42.55721 -2.80235 37889 ft 501 kts 29°
2026-05-09 11:12 42.61810 -2.75630 37915 ft 501 kts 29°
2026-05-09 11:12 42.67891 -2.71021 37935 ft 500 kts 29°
2026-05-09 11:13 42.73977 -2.66397 37892 ft 501 kts 30°
2026-05-09 11:13 42.80076 -2.61754 37942 ft 504 kts 30°
2026-05-09 11:14 42.86176 -2.57099 37937 ft 503 kts 30°
2026-05-09 11:14 42.92283 -2.52427 37910 ft 503 kts 30°
2026-05-09 11:15 42.98386 -2.47748 37901 ft 503 kts 30°
2026-05-09 11:15 43.04490 -2.43058 37898 ft 504 kts 30°
2026-05-09 11:16 43.10602 -2.38350 37866 ft 504 kts 30°
2026-05-09 11:16 43.16701 -2.33642 37899 ft 504 kts 30°
2026-05-09 11:17 43.22796 -2.28925 37872 ft 503 kts 30°
2026-05-09 11:17 43.28877 -2.24209 37885 ft 502 kts 30°
2026-05-09 11:18 43.34949 -2.19489 37866 ft 501 kts 30°
2026-05-09 11:18 43.41016 -2.14762 37873 ft 501 kts 30°
2026-05-09 11:19 43.47072 -2.10032 37871 ft 499 kts 30°
2026-05-09 11:19 43.53107 -2.05308 37874 ft 499 kts 30°
2026-05-09 11:20 43.59143 -2.00574 37870 ft 499 kts 30°
2026-05-09 11:20 43.65176 -1.95827 37877 ft 499 kts 30°
2026-05-09 11:21 43.71198 -1.91077 37875 ft 498 kts 30°
2026-05-09 11:21 43.77222 -1.86315 37884 ft 500 kts 30°
2026-05-09 11:22 43.83253 -1.81535 37885 ft 499 kts 31°
2026-05-09 11:22 43.89272 -1.76755 37886 ft 498 kts 31°
2026-05-09 11:23 43.95293 -1.71961 37872 ft 498 kts 31°
2026-05-09 11:23 44.01306 -1.67163 37878 ft 498 kts 31°
2026-05-09 11:24 44.07314 -1.62357 37875 ft 497 kts 31°
2026-05-09 11:24 44.13302 -1.57556 37881 ft 497 kts 31°
2026-05-09 11:25 44.19292 -1.52742 37859 ft 497 kts 31°
2026-05-09 11:25 44.25286 -1.47914 37888 ft 498 kts 31°
2026-05-09 11:26 44.31272 -1.43080 37881 ft 497 kts 31°
2026-05-09 11:26 44.37258 -1.38235 37886 ft 497 kts 31°
2026-05-09 11:27 44.43240 -1.33381 37897 ft 497 kts 31°
2026-05-09 11:27 44.49213 -1.28523 37883 ft 496 kts 31°
2026-05-09 11:28 44.55177 -1.23661 37877 ft 496 kts 31°
2026-05-09 11:28 44.61143 -1.18785 37897 ft 496 kts 31°
2026-05-09 11:29 44.67093 -1.13911 37847 ft 494 kts 31°
2026-05-09 11:29 44.73042 -1.09025 37894 ft 497 kts 31°
2026-05-09 11:30 44.79017 -1.04107 37881 ft 496 kts 31°
2026-05-09 11:30 44.84976 -0.99191 37895 ft 497 kts 31°
2026-05-09 11:31 44.90939 -0.94258 37899 ft 497 kts 31°
2026-05-09 11:31 44.96892 -0.89323 37911 ft 496 kts 31°
2026-05-09 11:32 45.02846 -0.84374 37903 ft 496 kts 31°
2026-05-09 11:32 45.08786 -0.79425 37904 ft 495 kts 31°
2026-05-09 11:33 45.14726 -0.74464 37891 ft 496 kts 31°
2026-05-09 11:33 45.23648 -0.66989 37906 ft 496 kts 31°
2026-05-09 11:34 45.29576 -0.62007 37907 ft 495 kts 31°
2026-05-09 11:34 45.35505 -0.57012 37915 ft 495 kts 31°
2026-05-09 11:35 45.41430 -0.52009 37923 ft 495 kts 31°
2026-05-09 11:35 45.47352 -0.46996 37929 ft 495 kts 31°
2026-05-09 11:36 45.53269 -0.41976 37936 ft 495 kts 31°
2026-05-09 11:36 45.59185 -0.36946 37915 ft 495 kts 31°
2026-05-09 11:37 45.65082 -0.31911 37910 ft 493 kts 33°
2026-05-09 11:37 45.70850 -0.26586 37949 ft 494 kts 33°
2026-05-09 11:38 45.76627 -0.21275 37938 ft 493 kts 33°
2026-05-09 11:38 45.82402 -0.15959 37942 ft 493 kts 33°
2026-05-09 11:39 45.88175 -0.10632 37939 ft 493 kts 33°
2026-05-09 11:40 45.96828 -0.02622 37940 ft 493 kts 33°
2026-05-09 11:40 46.02593 0.02730 37929 ft 493 kts 33°
2026-05-09 11:41 46.08361 0.08100 37938 ft 494 kts 33°
2026-05-09 11:41 46.14124 0.13478 37944 ft 494 kts 33°
2026-05-09 11:42 46.19882 0.18866 37956 ft 493 kts 33°
2026-05-09 11:42 46.25632 0.24260 37953 ft 492 kts 33°
2026-05-09 11:43 46.31376 0.29662 37945 ft 493 kts 34°
2026-05-09 11:43 46.37122 0.35078 37959 ft 493 kts 34°
2026-05-09 11:44 46.42859 0.40501 37928 ft 492 kts 33°
2026-05-09 11:44 46.48588 0.45929 37964 ft 492 kts 33°
2026-05-09 11:45 46.53346 0.50445 37961 ft 492 kts 33°
2026-05-09 11:45 46.56351 0.52788 37938 ft 490 kts 19°
2026-05-09 11:45 46.59622 0.54083 37991 ft 487 kts 12°
2026-05-09 11:46 46.66244 0.56386 37946 ft 489 kts 12°
2026-05-09 11:46 46.72881 0.58600 37958 ft 489 kts 12°
2026-05-09 11:47 46.79516 0.60794 37959 ft 489 kts 11°
2026-05-09 11:47 46.86158 0.62995 37960 ft 489 kts 12°
2026-05-09 11:48 46.92803 0.65203 37956 ft 489 kts 12°
2026-05-09 11:48 46.99440 0.67413 37965 ft 489 kts 12°
2026-05-09 11:49 47.05873 0.70367 37930 ft 487 kts 31°
2026-05-09 11:49 47.11709 0.75457 37926 ft 489 kts 31°
2026-05-09 11:50 47.17548 0.80612 37972 ft 490 kts 32°
2026-05-09 11:50 47.23357 0.85801 37959 ft 487 kts 32°
2026-05-09 11:51 47.29147 0.90991 37965 ft 487 kts 32°
2026-05-09 11:51 47.34932 0.96189 37970 ft 487 kts 32°
2026-05-09 11:52 47.40713 1.01399 37979 ft 487 kts 32°
2026-05-09 11:52 47.46491 1.06616 37972 ft 486 kts 32°
2026-05-09 11:53 47.52351 1.11609 37976 ft 486 kts 27°
2026-05-09 11:53 47.58361 1.16238 37971 ft 487 kts 28°
2026-05-09 11:54 47.64345 1.20934 37973 ft 487 kts 28°
2026-05-09 11:54 47.70326 1.25643 37984 ft 487 kts 28°
2026-05-09 11:55 47.76302 1.30362 37979 ft 487 kts 28°
2026-05-09 11:56 47.94317 1.44663 37972 ft 490 kts 28°
2026-05-09 11:57 48.00336 1.49467 37977 ft 490 kts 28°
2026-05-09 11:57 48.06349 1.54279 37968 ft 491 kts 28°
2026-05-09 11:58 48.12375 1.59111 37969 ft 491 kts 28°
2026-05-09 11:58 48.18397 1.63936 37969 ft 491 kts 28°
2026-05-09 11:59 48.24420 1.68774 37987 ft 491 kts 28°
2026-05-09 11:59 48.30430 1.73615 37980 ft 489 kts 28°
2026-05-09 12:00 48.36420 1.78453 37990 ft 489 kts 28°
2026-05-09 12:00 48.42415 1.83308 38013 ft 489 kts 28°
2026-05-09 12:01 48.48395 1.88164 38009 ft 486 kts 28°
2026-05-09 12:01 48.54334 1.93001 38017 ft 486 kts 28°
2026-05-09 12:02 48.60282 1.97857 38023 ft 486 kts 28°
2026-05-09 12:02 48.66224 2.02721 38028 ft 485 kts 28°
2026-05-09 12:03 48.72022 2.07861 38000 ft 481 kts 41°
2026-05-09 12:03 48.74331 2.11463 38041 ft 478 kts 55°
2026-05-09 12:03 48.76003 2.15780 37980 ft 473 kts 71°
2026-05-09 12:04 48.78005 2.25247 38013 ft 473 kts 76°
2026-05-09 12:04 48.79798 2.34831 38019 ft 472 kts 77°
2026-05-09 12:05 48.81524 2.44438 38018 ft 472 kts 77°
2026-05-09 12:05 48.83235 2.54060 38018 ft 472 kts 77°
2026-05-09 12:06 48.84937 2.63690 37999 ft 472 kts 77°
2026-05-09 12:06 48.86628 2.73305 38023 ft 472 kts 77°
2026-05-09 12:07 48.88302 2.82879 38028 ft 472 kts 78°
2026-05-09 12:07 48.89988 2.92574 38030 ft 472 kts 78°
2026-05-09 12:08 48.91646 3.02164 38028 ft 472 kts 78°
2026-05-09 12:08 48.93307 3.11817 38024 ft 472 kts 78°
2026-05-09 12:09 48.94958 3.21471 38034 ft 472 kts 78°
2026-05-09 12:09 48.96600 3.31128 38034 ft 472 kts 78°
2026-05-09 12:10 48.99864 3.50477 38032 ft 472 kts 78°
2026-05-09 12:11 49.01484 3.60163 38035 ft 472 kts 78°
2026-05-09 12:11 49.03096 3.69851 38037 ft 471 kts 78°
2026-05-09 12:12 49.04694 3.79517 38033 ft 470 kts 78°
2026-05-09 12:12 49.06283 3.89179 38027 ft 470 kts 78°
2026-05-09 12:13 49.07867 3.98869 38026 ft 470 kts 78°
2026-05-09 12:13 49.09441 4.08550 38023 ft 470 kts 78°
2026-05-09 12:14 49.11007 4.18239 38015 ft 470 kts 78°
2026-05-09 12:14 49.12556 4.27863 38021 ft 470 kts 78°
2026-05-09 12:15 49.14249 4.37505 38009 ft 472 kts 70°
2026-05-09 12:15 49.16775 4.46780 38013 ft 473 kts 69°
2026-05-09 12:16 49.19285 4.56057 38027 ft 473 kts 69°
2026-05-09 12:16 49.21794 4.65352 38051 ft 472 kts 69°
2026-05-09 12:17 49.24288 4.74626 38043 ft 471 kts 70°
2026-05-09 12:17 49.26772 4.83899 38046 ft 471 kts 70°
2026-05-09 12:18 49.29249 4.93182 38042 ft 471 kts 69°
2026-05-09 12:18 49.31715 5.02468 38054 ft 471 kts 69°
2026-05-09 12:19 49.34175 5.11765 38049 ft 470 kts 69°
2026-05-09 12:19 49.36627 5.21067 38054 ft 471 kts 70°
2026-05-09 12:20 49.39073 5.30386 38055 ft 471 kts 70°
2026-05-09 12:20 49.41509 5.39702 38073 ft 470 kts 69°
2026-05-09 12:21 49.43931 5.49008 38072 ft 469 kts 69°
2026-05-09 12:21 49.46344 5.58316 38077 ft 469 kts 69°
2026-05-09 12:22 49.48754 5.67637 38067 ft 469 kts 69°
2026-05-09 12:22 49.51620 5.76610 38041 ft 469 kts 50°
2026-05-09 12:22 49.53936 5.80114 38091 ft 468 kts 38°
2026-05-09 12:23 49.56605 5.83024 38065 ft 471 kts 33°
2026-05-09 12:23 49.62056 5.88609 38084 ft 469 kts 32°
2026-05-09 12:24 49.67496 5.94103 38088 ft 467 kts 32°
2026-05-09 12:24 49.72945 5.99609 37877 ft 468 kts 32°
2026-05-09 12:24 49.75639 6.02336 37599 ft 466 kts 32°
2026-05-09 12:25 49.78201 6.04933 37339 ft 466 kts 33°
2026-05-09 12:25 49.80907 6.07679 37059 ft 466 kts 33°
2026-05-09 12:25 49.83645 6.10366 36795 ft 465 kts 27°
2026-05-09 12:25 49.86637 6.12186 36472 ft 458 kts 11°
2026-05-09 12:26 49.89775 6.12770 35847 ft 455 kts
2026-05-09 12:26 49.91974 6.12862 35180 ft 459 kts
2026-05-09 12:26 49.95202 6.12958 34106 ft 470 kts
2026-05-09 12:26 49.98389 6.13011 33160 ft 474 kts 360°
2026-05-09 12:27 50.01656 6.13046 32643 ft 463 kts 360°
2026-05-09 12:27 50.04822 6.13072 32357 ft 447 kts 359°
2026-05-09 12:27 50.07891 6.13093 31957 ft 435 kts 359°
2026-05-09 12:27 50.10916 6.13112 31395 ft 439 kts 359°
2026-05-09 12:28 50.13983 6.13131 30754 ft 443 kts 359°
2026-05-09 12:28 50.17071 6.13148 30199 ft 444 kts 359°
2026-05-09 12:28 50.20152 6.13166 29601 ft 442 kts 359°
2026-05-09 12:28 50.22180 6.13178 29229 ft 439 kts 359°
2026-05-09 12:29 50.25218 6.13196 28707 ft 435 kts 359°
2026-05-09 12:29 50.28230 6.13435 28134 ft 433 kts 10°
2026-05-09 12:29 50.31079 6.14878 27547 ft 431 kts 27°
2026-05-09 12:29 50.33640 6.17253 27102 ft 426 kts 32°
2026-05-09 12:30 50.36134 6.19700 26604 ft 423 kts 33°
2026-05-09 12:30 50.38610 6.22182 26099 ft 420 kts 33°
2026-05-09 12:30 50.43480 6.27156 25117 ft 416 kts 33°
2026-05-09 12:31 50.45897 6.29644 24634 ft 414 kts 34°
2026-05-09 12:31 50.50871 6.34105 23582 ft 413 kts 19°
2026-05-09 12:31 50.53598 6.35620 22691 ft 419 kts 20°
2026-05-09 12:32 50.56359 6.37192 21796 ft 425 kts 20°
2026-05-09 12:32 50.59134 6.38765 20912 ft 422 kts 20°
2026-05-09 12:32 50.61874 6.40318 20110 ft 415 kts 20°
2026-05-09 12:32 50.64568 6.41847 19330 ft 408 kts 20°
2026-05-09 12:33 50.67214 6.43350 18579 ft 402 kts 20°
2026-05-09 12:33 50.69829 6.44836 17766 ft 396 kts 20°
2026-05-09 12:33 50.72409 6.46303 16960 ft 391 kts 20°
2026-05-09 12:33 50.74969 6.47590 16256 ft 383 kts 10°
2026-05-09 12:34 50.77576 6.47648 15803 ft 369 kts 348°
2026-05-09 12:34 50.79971 6.46348 15420 ft 363 kts 329°
2026-05-09 12:34 50.81962 6.43974 15019 ft 356 kts 313°
2026-05-09 12:34 50.83671 6.41177 14648 ft 353 kts 311°
2026-05-09 12:35 50.85332 6.38345 14264 ft 350 kts 310°
2026-05-09 12:35 50.86966 6.35496 13876 ft 348 kts 310°
2026-05-09 12:35 50.88574 6.32656 13448 ft 346 kts 309°
2026-05-09 12:35 50.90169 6.29812 13054 ft 343 kts 309°
2026-05-09 12:36 50.91739 6.26999 12677 ft 339 kts 309°
2026-05-09 12:36 50.93292 6.24208 12311 ft 336 kts 309°
2026-05-09 12:36 50.94909 6.21560 11902 ft 336 kts 320°
2026-05-09 12:36 50.96993 6.19891 11472 ft 339 kts 342°
2026-05-09 12:37 50.99309 6.19245 11146 ft 336 kts 349°
2026-05-09 12:37 51.01602 6.18679 10899 ft 330 kts 349°
2026-05-09 12:37 51.03839 6.18138 10755 ft 320 kts 349°
2026-05-09 12:37 51.06010 6.17618 10615 ft 311 kts 349°
2026-05-09 12:38 51.08117 6.17116 10472 ft 302 kts 349°
2026-05-09 12:38 51.10161 6.16629 10333 ft 294 kts 349°
2026-05-09 12:38 51.12158 6.16154 10190 ft 286 kts 349°
2026-05-09 12:38 51.14114 6.15688 9903 ft 284 kts 349°
2026-05-09 12:39 51.16063 6.15225 9563 ft 283 kts 349°
2026-05-09 12:39 51.18005 6.14762 9252 ft 281 kts 349°
2026-05-09 12:39 51.19933 6.14302 8934 ft 279 kts 350°
2026-05-09 12:39 51.21847 6.13844 8645 ft 277 kts 350°
2026-05-09 12:40 51.23747 6.13389 8353 ft 275 kts 350°
2026-05-09 12:40 51.25631 6.12940 8089 ft 272 kts 351°
2026-05-09 12:40 51.27506 6.13039 7770 ft 272 kts 15°
2026-05-09 12:40 51.29179 6.14418 7428 ft 272 kts 37°
2026-05-09 12:41 51.30689 6.16220 7144 ft 270 kts 36°
2026-05-09 12:41 51.32175 6.18049 6862 ft 269 kts 38°
2026-05-09 12:41 51.33639 6.19887 6602 ft 267 kts 38°
2026-05-09 12:41 51.35096 6.21721 6274 ft 266 kts 38°
2026-05-09 12:42 51.36548 6.23549 6006 ft 264 kts 38°
2026-05-09 12:42 51.37988 6.25353 5706 ft 263 kts 38°
2026-05-09 12:42 51.39422 6.27145 5404 ft 261 kts 38°
2026-05-09 12:42 51.40858 6.28939 5123 ft 260 kts 38°
2026-05-09 12:43 51.42280 6.30717 4829 ft 259 kts 38°
2026-05-09 12:43 51.43681 6.32473 4532 ft 258 kts 38°
2026-05-09 12:43 51.45094 6.34244 4243 ft 256 kts 38°
2026-05-09 12:43 51.46494 6.35996 3971 ft 254 kts 38°
2026-05-09 12:44 51.47883 6.37737 3687 ft 253 kts 38°
2026-05-09 12:44 51.49264 6.39467 3420 ft 251 kts 38°
2026-05-09 12:44 51.50631 6.41181 3153 ft 249 kts 38°
2026-05-09 12:44 51.51986 6.42881 3028 ft 247 kts 38°
2026-05-09 12:45 51.53343 6.44584 3024 ft 249 kts 38°
2026-05-09 12:45 51.54687 6.46274 3026 ft 238 kts 38°
2026-05-09 12:45 51.55953 6.47849 3037 ft 224 kts 34°
2026-05-09 12:45 51.57346 6.48660 3019 ft 208 kts
2026-05-09 12:46 51.58681 6.48180 3025 ft 190 kts 329°
2026-05-09 12:46 51.59551 6.46657 2993 ft 187 kts 293°
2026-05-09 12:46 51.59729 6.44626 3019 ft 184 kts 266°
2026-05-09 12:46 51.59688 6.42598 3041 ft 179 kts 270°
2026-05-09 12:47 51.59694 6.40626 3039 ft 175 kts 271°
2026-05-09 12:47 51.59722 6.38684 2847 ft 170 kts 272°
2026-05-09 12:47 51.59757 6.36807 2646 ft 167 kts 272°
2026-05-09 12:47 51.59794 6.34949 2440 ft 166 kts 272°
2026-05-09 12:48 51.59833 6.33096 2214 ft 166 kts 272°
2026-05-09 12:48 51.59873 6.31244 2008 ft 165 kts 272°
2026-05-09 12:48 51.59912 6.29404 1791 ft 163 kts 272°
2026-05-09 12:48 51.59952 6.27641 1599 ft 154 kts 272°
2026-05-09 12:49 51.59988 6.25927 1374 ft 153 kts 272°
2026-05-09 12:49 51.60005 6.24219 1186 ft 153 kts 270°
2026-05-09 12:49 51.60019 6.22500 954 ft 155 kts 273°
2026-05-09 12:49 51.60081 6.20772 749 ft 154 kts 275°
2026-05-09 12:50 51.60144 6.19048 540 ft 155 kts 274°
2026-05-09 12:50 51.60171 6.17324 322 ft 152 kts 272°
2026-05-09 12:50 51.60212 6.15658 137 ft 146 kts 274°
2026-05-09 12:50 51.60244 6.14270 116 ft 93 kts 272°
2026-05-09 12:51 51.60264 6.13416 121 ft 74 kts 272°
2026-05-09 12:51 51.60278 6.12738 114 ft 46 kts 272°
2026-05-09 12:51 51.60278 6.12508 115 ft 11 kts 246°
2026-05-09 12:51 51.60209 6.12462 115 ft 13 kts 181°
2026-05-09 12:52 51.60118 6.12461 112 ft 12 kts 167°
2026-05-09 12:52 51.60090 6.12583 113 ft 14 kts 92°
2026-05-09 12:52 51.60087 6.12756 112 ft 17 kts 92°
2026-05-09 12:52 51.60082 6.12963 112 ft 20 kts 92°
2026-05-09 12:53 51.60077 6.13190 112 ft 21 kts 91°
2026-05-09 12:53 51.60072 6.13425 117 ft 21 kts 92°
2026-05-09 12:53 51.60067 6.13675 117 ft 23 kts 92°
2026-05-09 12:53 51.60061 6.13941 119 ft 25 kts 92°
2026-05-09 12:54 51.60055 6.14234 115 ft 26 kts 91°
2026-05-09 12:54 51.60049 6.14518 111 ft 26 kts 92°
2026-05-09 12:54 51.60049 6.14733 114 ft 9 kts 91°
2026-05-09 12:54 51.60016 6.14797 115 ft 8 kts 162°
2026-05-09 12:55 51.59970 6.14803 113 ft 5 kts 151°
2026-05-09 12:55 51.59959 6.14850 116 ft 3 kts 98°
2026-05-09 12:55 51.59959 6.14867 116 ft 1 kts 93°
2026-05-09 12:55 51.59958 6.14874 116 ft 0 kts 93°